Regional Weather Roundup
Issued by NWS

Home | Current Version | Previous Version | Graphics & Text | Print | Product List | Glossary Off
Versions: 1 2 3 4 5 6 7 8 9 10 11 12 13 14 15 16 17 18 19 20 21 22 23 24 25 26 27 28 29 30 31 32 33 34 35 36 37 38 39 40 41 42 43 44 45 46 47 48 49 50

000
ASUS43 KTOP 271159
RWRKS

WEATHER ROUNDUP FOR KANSAS
NATIONAL WEATHER SERVICE GOODLAND KS
700 AM CDT FRI MAR 27 2015

NOTE:  "FAIR" INDICATES FEW OR NO CLOUDS BELOW 12,000 FEET WITH NO
SIGNIFICANT WEATHER AND/OR OBSTRUCTIONS TO VISIBILITY.

KSZ001>006-013>018-027>032-041>047-271300-
NORTHWEST KANSAS

CITY           SKY/WX    TMP DP  RH WIND       PRES   REMARKS
GOODLAND       CLOUDY    32  28  85 SE5       30.21S
6HR MIN TEMP:  31; 6HR MAX TEMP:  41;

HAYS           CLOUDY    34  25  69 NE8       30.27R
HILL CITY      LGT SNOW  32  30  92 NE5       30.26S FOG
6HR MIN TEMP:  32; 6HR MAX TEMP:  37; 6HR PCP: TRACE;

RUSSELL        CLOUDY    33  27  78 N9        30.26R
6HR MIN TEMP:  33; 6HR MAX TEMP:  36;

$$

KSZ061>065-074>080-084>089-271300-
SOUTHWEST KANSAS

CITY           SKY/WX    TMP DP  RH WIND       PRES   REMARKS
DODGE CITY     CLOUDY    35  30  82 NE16      30.21R WCI  25
6HR MIN TEMP:  35; 6HR MAX TEMP:  45;

ELKHART          N/A     38  26  62 NW1         N/A
GARDEN CITY    CLOUDY    34  31  88 NE13      30.21R WCI  25
6HR MIN TEMP:  34; 6HR MAX TEMP:  47; 6HR PCP: TRACE;

GREAT BEND     CLOUDY    34  25  69 N15       30.26R WCI  24
LIBERAL        MOCLDY    43  28  56 NE10      30.20R
$$

KSZ066>073-081>083-090>101-271300-
SOUTHEAST KANSAS

CITY           SKY/WX    TMP DP  RH WIND       PRES   REMARKS
CHANUTE        CLOUDY    38  33  82 N13       30.19R WCI  30
6HR MIN TEMP:  38; 6HR MAX TEMP:  42; 6HR PCP: TRACE;

COFFEYVILLE    CLOUDY    41  36  82 N15       30.17R
6HR MIN TEMP:  38; 6HR MAX TEMP:  45;

HUTCHINSON     CLOUDY    35  28  75 N13G22    30.25R WCI  26
6HR MIN TEMP:  35; 6HR MAX TEMP:  44;

MEDICINE LODGE   N/A     39  33  79 N15       30.23R WCI  31
NEWTON         CLOUDY    36  27  69 N15       30.25R WCI  26
PARSONS        CLOUDY    41  36  82 N10G18    30.18R
6HR MIN TEMP:  39; 6HR MAX TEMP:  45;

WICHITA INTL   CLOUDY    38  32  79 N16       30.23R WCI  29
6HR MIN TEMP:  38; 6HR MAX TEMP:  48;

WICHITA JABRA  CLOUDY    36  31  82 N18G24    30.22R WCI  26
6HR MIN TEMP:  36; 6HR MAX TEMP:  43;

WICHITA MCCONL CLOUDY    37  32  81 NE18      30.22R WCI  27
WINFIELD       CLOUDY    40  35  83 N18       30.22R WCI  31
6HR MIN TEMP:  38; 6HR MAX TEMP:  43;

$$

KSZ007>012-019>026-033>040-048>060-102>105-271300-
NORTHEAST KANSAS

CITY           SKY/WX    TMP DP  RH WIND       PRES   REMARKS
CONCORDIA      MOCLDY    29  28  96 N8        30.27R
6HR MIN TEMP:  29; 6HR MAX TEMP:  35;

EMPORIA        CLOUDY    34  29  82 N13       30.22R WCI  25
6HR MIN TEMP:  34; 6HR MAX TEMP:  38;

LAWRENCE       CLEAR     32  29  88 N9        30.23R
6HR MIN TEMP:  32; 6HR MAX TEMP:  38; 6HR PCP:  0.01;

MANHATTAN      CLOUDY    34  30  85 N8        30.27R
6HR MIN TEMP:  33; 6HR MAX TEMP:  38;

OLATHE IND     CLEAR     32  29  88 N10       30.22R WCI  24
6HR MIN TEMP:  32; 6HR MAX TEMP:  37; 6HR PCP:  0.01;

OLATHE EXE     PTCLDY    34  29  82 N8        30.20R
6HR MIN TEMP:  34; 6HR MAX TEMP:  38; 6HR PCP:  0.02;

SALINA         MOCLDY    33  28  81 N8        30.27R
6HR MIN TEMP:  33; 6HR MAX TEMP:  39;

TOPEKA BILLARD CLOUDY    34  29  82 N9        30.25R
6HR MIN TEMP:  33; 6HR MAX TEMP:  37; 6HR PCP:  0.01;

TOPEKA FORBES  PTCLDY    34  30  85 N9        30.23R
6HR MIN TEMP:  34; 6HR MAX TEMP:  38; 6HR PCP:  0.03;

$$



USA.gov is the U.S. government's official web portal to all federal, state and local government web resources and services.